This demonstration page uses our WeatherBlox Daily Observations layout. Learn more.

Left ArrowRight Arrow

34.74481, -87.66753

Hourly Observations for December 24, 2020

Temp ( °F °C ) Dew Point ( °F °C ) Humidity (%) Winds ( mph kmh ) Pressure ( in mb ) Visibility ( mi km ) Precip ( " mm )
12:17 am 00:17 Cloudy with Heavy Rain 55 12.8 49 9.4 80 80 WNW 8 13 29.83 1010 3 4 0.14 3.56
12:26 am 00:26 Cloudy with Heavy Rain 55 12.8 50 10 83 83 W 9 15 29.83 1010 1 2 0.36 9.14
12:33 am 00:33 Cloudy with Heavy Rain 55 12.8 50 10 83 83 WNW 8 13 29.82 1010 2 3 0.40 10.16
12:37 am 00:37 Cloudy with Heavy Rain 55 12.8 50 10 83 83 W 5 7 29.81 1010 3 5 0.41 10.41
12:53 am 00:53 Cloudy with Heavy Rain 54 12.2 50 10 87 87 NW 5 7 29.80 1009 3 5 0.49 12.45
1:11 am 01:11 Cloudy with Heavy Rain 54 12.2 50 10 87 87 WNW 5 7 29.82 1010 4 6 0.07 1.78
1:25 am 01:25 Cloudy with Heavy Rain 55 12.8 50 10 83 83 WNW 7 11 29.82 1010 4 6 0.13 3.30
1:48 am 01:48 Cloudy with Heavy Rain 52 11 46 8 82 82 NW 12 19 29.85 1011 5 8 0.20 5.08
1:53 am 01:53 Cloudy with Heavy Rain 51 10.6 45 7.2 80 80 NW 14 22 29.85 1011 4 6 0.22 5.59
2:01 am 02:01 Cloudy with Heavy Rain 50 10 45 7.2 83 83 NW 14 22 29.88 1012 4 6 0.04 1.02
2:11 am 02:11 Cloudy with Heavy Rain 50 10 44 6.7 80 80 NW 14 22 29.89 1012 5 8 0.09 2.29
2:51 am 02:51 Cloudy with Rain 50 10 45 7 82 82 NW 6 9 29.88 1012 7 11 0.20 5.08
2:53 am 02:53 Cloudy with Light Rain 50 10 45 7.2 83 83 NW 5 7 29.86 1011 8 13 0.20 5.08
3:00 am 03:00 Cloudy with Light Rain 50 10 44 6.7 80 80 WNW 10 17 29.87 1011 10 16 0.01 0.25
3:25 am 03:25 Cloudy with Rain 48 8.9 41 5 77 77 NW 10 17 29.84 1010 7 11 0.03 0.76
3:37 am 03:37 Mostly Cloudy with Light Rain 47 8.3 40 4.4 77 77 WNW 12 19 29.84 1011 10 16 0.03 0.76
3:44 am 03:44 Mostly Cloudy 47 8.3 40 4.4 77 77 NW 12 19 29.84 1011 10 16 0.03 0.76
3:53 am 03:53 Mostly Cloudy 46 7.8 38 3.3 73 73 WNW 15 24 29.84 1010 10 16 0.03 0.76
4:53 am 04:53 Cloudy 43 6.1 32 0 65 65 WNW 12 19 29.86 1011 10 16 0.00 0.00
5:53 am 05:53 Clear 42 5.6 29 -1.7 60 60 NW 12 19 29.87 1012 10 16 0.00 0.00
6:53 am 06:53 Clear 39 3.9 27 -2.8 62 62 NW 13 20 29.90 1013 10 16 0.00 0.00
7:53 am 07:53 Partly Cloudy 36 2.2 26 -3.3 67 67 NW 15 24 29.92 1013 10 16 0.00 0.00
8:19 am 08:19 Mostly Cloudy 35 1.7 25 -3.9 67 67 WNW 15 24 29.96 1014 10 16 0.00 0.00
8:53 am 08:53 Partly Cloudy 34 1.1 21 -6.1 59 59 NW 15 24 29.94 1014 10 16 0.00 0.00
9:53 am 09:53 Partly Cloudy 35 1.7 23 -5 61 61 NW 14 22 29.93 1014 10 16 0.00 0.00
10:53 am 10:53 Cloudy 35 1.7 21 -6.1 57 57 WNW 17 28 29.93 1014 10 16 0.00 0.00
11:53 am 11:53 Mostly Cloudy 37 2.8 23 -5 57 57 WNW 14 22 29.91 1013 10 16 0.00 0.00
12:00 pm 12:00 Mostly Cloudy 37 2.8 23 -5 57 57 W 17 28 29.92 1013 10 16 0.00 0.00
12:09 pm 12:09 Mostly Cloudy 37 2.8 23 -5 57 57 NW 17 28 29.93 1014 10 16 0.00 0.00
12:53 pm 12:53 Mostly Sunny 39 3.9 20 -6.7 46 46 WNW 16 26 29.89 1012 10 16 0.00 0.00
1:53 pm 13:53 Sunny 40 4.4 20 -6.7 45 45 NW 15 24 29.89 1012 10 16 0.00 0.00
2:53 pm 14:53 Mostly Sunny 39 3.9 16 -8.9 39 39 W 22 35 29.91 1013 10 16 0.00 0.00
3:53 pm 15:53 Mostly Cloudy 37 2.8 15 -9.4 41 41 WNW 20 31 29.94 1014 10 16 0.00 0.00
4:53 pm 16:53 Cloudy 35 1.7 16 -8.9 46 46 WNW 20 31 29.96 1015 10 16 0.00 0.00
5:53 pm 17:53 Mostly Cloudy 33 0.6 15 -9.4 47 47 WNW 18 30 29.98 1015 10 16 0.00 0.00
6:53 pm 18:53 Cloudy 33 0.6 13 -10.6 43 43 WNW 18 30 30.00 1016 10 16 0.00 0.00
7:53 pm 19:53 Partly Cloudy 31 -0.6 14 -10 49 49 W 13 20 30.01 1016 10 16 0.00 0.00
8:53 pm 20:53 Partly Cloudy 31 -0.6 14 -10 49 49 W 9 15 30.02 1017 10 16 0.00 0.00
9:53 pm 21:53 Clear 31 -0.6 13 -10.6 47 47 W 14 22 30.02 1017 10 16 0.00 0.00
10:53 pm 22:53 Clear 30 -1.1 13 -10.6 49 49 WNW 14 22 30.02 1017 10 16 0.00 0.00
11:53 pm 23:53 Clear 30 -1.1 9 -12.8 41 41 WNW 12 19 30.02 1017 10 16 0.00 0.00

Powered by AerisWeather